Theta_e
301 301 298 296 296 295 295 295 295 295 295 295 295 295 294 294 293 293 294 294 294 293 292 291 290 289 289 290 290 290 290 289 289 289 289 289 288 288 288 288 288 287 287 286 286 287 285 284 284 283 283 283 283 283 282 282 282 282 283 283 282 281 282 282 282 281 280 280 280 281 282 282 285 284 282 283 283 283 283 283 283 284 284 284 284
299 299 299 294 294 293 293 293 294 293 294 294 295 295 295 294 293 293 293 293 294 293 293 292 292 292 291 291 291 291 290 289 289 288 289 289 288 288 288 288 287 287 287 286 286 285 284 284 284 283 283 283 283 282 281 285 282 282 282 280 281 280 280 281 283 279 279 278 278 279 281 282 284 282 282 282 283 284 283 283 284 284 284 284 285
298 298 298 295 293 292 292 293 293 295 295 294 295 295 294 293 293 293 293 293 293 293 293 292 292 292 292 291 292 290 290 290 289 289 289 288 288 287 288 287 287 286 287 286 286 285 285 284 284 283 283 284 283 282 282 282 281 281 281 281 280 281 281 282 281 280 278 279 279 278 277 278 282 280 280 282 283 283 283 282 284 284 284 283 285
297 298 298 294 292 292 291 291 293 293 293 293 294 294 294 293 293 293 293 293 293 293 293 293 292 291 289 290 289 288 287 288 288 287 287 287 287 287 287 287 287 287 286 286 286 285 284 284 283 283 283 284 283 282 282 282 281 281 280 281 281 280 278 280 282 280 279 279 276 278 276 277 276 277 278 281 281 281 282 282 283 283 283 283 284
298 298 298 297 290 290 291 292 292 292 293 294 294 294 294 293 293 293 293 293 293 293 293 292 291 289 288 288 288 287 287 286 285 284 287 287 287 286 287 287 287 287 286 286 286 285 284 284 283 283 283 283 283 282 282 282 281 281 282 281 279 279 279 278 280 280 280 281 278 277 276 276 276 276 278 278 279 280 281 281 284 282 281 283 282
297 297 298 298 294 290 289 289 290 292 293 294 294 294 294 293 292 292 292 292 292 292 293 292 291 290 288 287 287 286 285 285 286 286 285 286 287 287 286 287 287 286 286 286 285 285 284 283 283 283 282 283 282 282 282 281 281 281 281 281 280 279 279 278 278 281 281 282 279 278 278 276 275 277 277 276 279 280 281 281 281 281 281 281 282
296 296 297 296 294 290 289 289 290 291 293 294 293 293 293 292 292 292 292 292 292 292 292 292 290 290 290 290 290 289 288 287 289 289 288 288 288 287 287 286 286 286 285 285 285 285 284 283 283 283 283 282 283 281 281 281 281 281 281 280 280 282 280 278 279 278 279 280 280 279 281 280 279 276 275 276 274 277 278 279 279 280 280 281 281
296 296 296 295 291 292 292 291 291 292 293 292 292 292 292 291 291 291 292 292 292 292 291 292 291 290 290 290 290 289 290 289 288 289 288 287 287 286 286 286 286 286 285 284 284 284 283 283 282 282 282 282 283 282 281 281 281 281 281 281 280 281 279 280 278 278 278 279 280 279 280 279 278 278 277 277 276 274 275 278 279 279 281 281 281
295 295 296 295 291 290 291 291 292 291 291 291 291 291 291 291 291 291 291 291 291 291 291 291 291 290 290 290 289 290 290 289 288 288 287 287 286 285 285 285 285 285 285 284 284 284 284 283 282 282 282 282 283 281 281 281 281 281 280 280 280 280 279 279 279 278 278 278 278 276 277 277 277 277 277 277 277 274 275 276 276 279 280 279 279
295 293 292 292 290 290 290 290 289 290 290 290 290 290 290 290 290 290 290 291 291 291 291 291 291 291 290 290 289 289 288 285 286 285 285 286 286 285 285 284 285 284 284 284 283 283 283 283 282 282 282 282 283 281 280 280 281 281 281 280 280 280 279 280 279 278 279 279 278 278 277 276 276 276 276 276 276 276 275 275 276 275 275 277 280
294 292 289 289 288 288 287 288 288 287 287 289 289 289 289 289 289 289 290 290 290 290 290 290 290 290 290 290 289 289 287 285 285 284 284 284 285 284 284 284 284 284 283 283 283 283 283 282 282 281 281 282 282 281 281 281 281 281 280 280 280 280 279 279 281 279 278 278 278 278 278 277 277 276 276 276 276 275 275 275 276 276 276 276 278
291 290 289 288 287 286 285 286 285 286 286 288 288 289 289 289 289 289 289 289 290 290 290 290 290 290 290 290 289 289 288 286 286 285 285 285 285 284 284 283 283 284 283 283 282 282 282 282 282 281 281 281 281 281 281 281 281 280 280 280 279 279 279 280 279 278 278 278 278 278 278 278 278 277 277 277 276 275 275 275 275 276 276 276 278
289 289 289 288 287 287 285 285 285 284 287 287 288 288 288 288 288 288 288 288 289 289 290 290 290 290 290 289 289 289 288 287 287 286 285 286 285 285 283 284 283 283 283 283 283 282 283 282 281 281 281 281 281 280 280 280 280 280 280 279 279 279 279 279 279 278 278 278 278 278 278 278 277 277 278 277 277 276 276 274 275 276 274 275 277
290 290 288 288 288 285 285 285 285 285 285 286 286 287 288 288 288 288 288 288 288 289 289 289 289 289 289 289 289 289 288 287 287 286 286 286 286 286 285 285 284 284 284 284 284 283 283 282 282 281 281 281 281 280 280 280 280 280 280 279 279 279 279 278 278 278 278 278 278 277 277 277 277 277 277 277 276 276 275 274 274 275 275 275 276
286 288 288 287 287 285 285 285 284 284 285 285 285 287 287 288 288 288 288 287 288 288 289 289 289 289 289 289 289 288 288 287 287 287 286 286 286 286 285 285 285 285 285 284 284 283 283 282 282 281 280 280 280 280 280 280 280 280 279 279 279 278 278 278 278 278 278 277 277 277 277 277 277 277 277 277 277 277 276 276 275 273 274 275 274
287 285 286 285 284 284 284 283 283 283 283 284 285 286 287 287 287 288 288 288 288 288 288 289 289 289 288 288 288 288 288 287 287 287 286 286 286 286 286 285 285 285 285 284 284 283 282 282 281 281 280 280 280 280 280 279 279 279 279 278 278 279 278 278 277 277 277 277 277 277 277 277 277 277 277 277 277 277 277 277 276 275 273 272 275
287 286 285 285 283 282 283 283 283 282 283 284 285 286 287 287 287 287 287 287 287 288 288 288 288 288 288 288 288 287 287 287 287 286 286 286 285 285 286 285 285 284 284 284 283 283 282 282 281 280 280 280 280 280 279 279 279 279 279 278 278 278 278 278 277 277 277 277 277 277 277 277 276 277 277 277 277 277 277 277 277 276 276 274 272
285 283 282 282 282 282 282 282 282 283 283 283 285 285 286 287 286 286 286 286 287 287 287 288 287 287 287 287 288 288 287 287 287 286 286 285 285 285 284 283 284 284 284 283 283 282 282 282 281 280 280 279 279 279 279 279 279 279 279 278 278 278 278 277 277 277 277 277 277 277 277 277 277 277 277 277 277 277 277 277 277 277 277 274 274
289 288 288 286 283 283 282 282 282 282 282 282 283 284 284 284 285 286 287 287 287 287 287 287 287 288 288 287 287 287 287 287 287 286 285 284 284 284 284 284 283 283 283 282 282 282 281 281 281 280 279 279 279 279 279 279 279 278 278 278 278 278 277 277 277 277 277 277 276 276 276 276 276 276 276 277 277 277 277 277 277 278 277 276 275
287 286 286 285 285 284 284 283 282 283 283 283 283 283 284 284 284 285 285 284 284 285 286 286 286 287 287 286 286 287 287 286 286 285 284 284 284 284 283 283 283 283 282 282 282 281 281 281 280 280 279 279 279 279 279 278 278 278 278 277 277 277 277 277 276 277 277 277 276 276 276 276 276 276 276 276 275 276 275 275 275 275 275 275 274
287 287 287 286 286 284 284 283 283 282 282 283 283 284 285 285 285 285 285 285 285 285 285 286 286 286 286 286 286 286 286 286 285 284 284 284 284 283 283 283 282 282 282 282 281 281 281 281 280 280 279 279 279 278 278 278 278 278 277 277 277 277 277 276 276 276 277 276 276 275 275 275 276 275 275 274 274 274 274 274 274 274 273 274 273
286 287 286 287 286 285 284 284 284 283 283 283 284 283 283 285 286 286 284 284 285 285 286 286 286 286 285 286 286 286 286 285 284 284 284 283 283 283 283 282 282 282 282 282 281 281 281 281 280 279 279 279 279 278 278 278 278 277 277 277 277 276 276 275 275 275 275 276 276 275 274 274 274 274 273 273 273 273 273 272 272 273 272 272 273
289 289 289 287 286 285 286 286 286 285 285 284 284 284 285 285 285 285 285 285 286 286 287 286 286 285 285 286 286 285 285 285 284 284 284 284 283 283 282 282 282 281 281 282 281 281 281 280 280 280 279 279 279 278 278 278 278 277 277 277 277 276 276 275 275 275 275 275 274 274 273 272 273 272 272 272 272 272 272 271 271 272 271 271 272
289 288 289 288 286 286 286 286 287 286 286 286 285 285 285 285 286 286 285 286 285 286 286 285 285 285 285 285 285 285 284 284 284 284 284 284 284 283 282 282 282 281 281 281 281 281 280 280 280 279 279 279 278 278 278 278 278 277 277 277 276 276 276 276 275 275 274 274 274 273 272 272 271 271 270 271 271 271 271 271 270 271 271 270 271
291 292 292 290 288 288 289 288 288 289 289 288 287 286 285 285 284 285 285 286 286 286 285 285 286 286 285 285 284 284 284 283 284 284 284 284 283 282 282 282 281 281 281 281 281 281 280 280 280 279 279 278 278 278 277 277 277 277 277 277 276 276 276 275 275 274 275 274 273 273 272 271 271 270 269 269 270 269 270 270 270 270 270 270 270
290 290 290 290 290 291 292 292 292 291 290 290 289 287 286 285 285 285 285 286 286 286 286 286 285 285 285 284 284 284 284 284 284 284 284 284 284 283 281 282 282 281 280 281 280 280 280 280 280 279 279 279 278 278 277 277 277 277 277 276 276 276 275 275 274 274 274 273 273 273 272 271 271 270 269 268 269 268 268 268 268 269 269 270 269
289 289 289 289 289 289 290 290 290 291 290 290 290 289 288 287 286 285 285 286 286 285 286 286 285 285 285 284 284 284 285 285 285 285 285 284 284 283 282 282 282 281 280 280 280 280 280 280 280 279 279 279 278 278 277 277 277 276 276 276 275 275 275 274 274 273 273 273 273 272 271 271 270 270 269 268 268 268 267 266 267 267 269 269 269
287 287 287 287 287 288 288 289 289 289 290 290 291 290 289 288 288 287 285 285 285 285 285 285 286 285 285 285 285 285 285 285 285 284 284 284 284 283 282 282 281 281 280 280 280 280 280 280 280 279 279 278 278 277 277 277 276 276 276 275 275 274 274 273 273 273 273 272 272 272 271 271 271 270 269 269 269 268 268 267 267 267 268 268 267
286 286 286 287 287 287 288 288 288 289 289 289 290 290 291 291 289 288 286 285 285 284 285 285 285 285 285 285 285 285 285 285 284 283 283 283 283 282 282 281 281 281 281 280 280 280 279 279 279 279 278 278 278 277 277 277 276 276 275 275 274 274 273 273 272 272 272 272 272 272 272 271 271 273 274 273 272 271 268 266 267 268 268 268 268
284 285 285 286 287 287 287 288 288 288 288 289 289 289 290 289 290 291 290 288 283 284 285 285 285 285 286 285 285 285 284 284 283 283 283 283 282 281 281 280 280 280 280 280 279 279 279 279 278 278 278 278 278 278 279 281 280 276 276 275 274 274 273 273 272 271 271 272 272 272 272 274 275 275 275 275 275 275 274 270 269 270 269 269 269
284 284 285 285 286 287 287 287 288 288 288 289 289 289 289 289 289 290 290 290 284 285 285 285 285 286 286 285 284 284 284 283 283 283 282 282 281 280 280 280 279 279 280 280 280 279 279 279 278 278 277 277 277 278 281 282 282 281 277 275 274 273 273 272 272 271 271 271 271 271 271 274 275 275 274 276 276 276 276 276 275 275 274 271 270
282 283 284 284 285 286 286 287 287 288 288 288 288 288 288 288 288 288 289 290 288 286 286 286 286 286 285 285 284 283 283 283 282 282 282 281 281 280 279 279 279 279 279 279 279 279 279 279 279 278 277 277 277 280 282 283 283 282 279 275 274 273 272 272 272 271 271 271 271 271 271 272 273 273 273 274 276 277 277 278 278 277 277 277 276
282 283 283 284 284 285 286 287 287 288 288 288 288 288 287 287 287 287 288 288 288 287 286 285 286 285 284 284 283 283 283 282 281 281 281 280 280 279 279 279 279 279 279 278 279 279 278 279 278 277 277 277 277 281 283 284 284 283 281 277 273 273 272 272 272 271 271 271 271 271 271 272 273 276 275 274 274 275 277 278 278 279 278 279 279
282 283 283 284 285 285 286 286 287 288 288 288 288 287 287 287 287 287 286 286 286 286 285 285 284 284 283 282 282 282 282 282 280 280 280 280 279 279 279 279 279 278 278 278 278 278 278 278 277 277 277 277 276 281 283 284 284 284 282 278 273 273 272 272 272 271 272 271 271 271 271 272 272 273 274 273 273 272 272 272 273 274 274 275 277
282 283 283 284 284 285 285 285 286 287 287 287 287 288 287 286 286 286 286 284 284 283 284 284 283 282 281 280 281 281 281 280 279 279 279 279 279 279 278 278 278 278 278 277 277 277 277 277 277 277 277 276 276 281 284 284 284 284 283 278 272 272 272 271 272 272 272 272 272 272 272 272 272 272 273 273 272 271 270 270 270 271 272 273 274
282 283 284 284 284 285 285 285 286 286 286 286 286 287 286 285 286 285 285 284 283 283 283 282 281 282 280 279 278 278 278 277 278 277 278 279 278 278 278 278 278 277 278 278 277 277 277 276 276 276 276 275 275 282 284 285 285 284 283 274 272 271 271 271 271 272 272 272 273 273 272 272 272 272 275 277 275 272 271 270 270 271 272 273 273
283 284 284 285 285 286 286 286 286 286 286 286 287 286 285 285 285 285 284 283 282 283 283 282 281 281 280 278 277 277 277 277 277 277 277 278 278 278 278 278 277 277 277 277 276 276 276 276 276 275 275 275 274 281 284 285 285 285 281 272 271 271 271 271 271 272 272 273 273 273 273 272 272 272 275 278 278 276 272 271 271 271 272 273 273
283 284 285 285 285 286 286 286 286 286 286 287 287 286 285 284 284 284 283 282 282 282 281 280 280 280 279 278 279 278 279 278 278 277 278 278 278 278 278 277 277 276 276 276 276 276 276 276 275 275 275 274 273 279 284 285 285 285 278 272 271 271 271 271 272 272 273 273 273 276 274 272 272 272 276 277 278 277 274 274 273 273 272 271 272
283 283 284 284 285 285 285 285 285 284 286 286 286 286 285 284 285 284 282 282 282 281 280 278 278 278 277 277 278 279 280 278 278 278 277 277 277 277 277 276 277 277 276 276 275 275 274 274 274 274 276 274 273 278 284 284 285 285 277 272 272 272 271 272 272 272 272 272 273 275 276 274 273 273 277 278 278 277 275 274 273 272 271 271 273
282 284 284 284 284 284 283 283 283 284 285 285 286 286 285 284 284 284 283 283 281 280 278 277 275 274 273 275 277 278 279 278 278 277 277 277 276 275 275 275 275 275 275 274 274 274 273 273 273 273 274 274 273 275 281 284 285 284 280 274 273 272 271 272 272 272 271 272 273 274 276 278 277 277 277 278 278 279 275 274 274 272 272 272 274
281 282 284 282 282 282 282 282 283 283 284 285 285 284 283 283 283 283 284 284 280 277 276 275 274 273 273 274 274 276 276 276 276 276 276 275 275 275 274 273 272 272 272 272 272 272 272 271 271 271 272 272 272 274 279 284 285 285 282 278 273 273 273 272 272 272 272 272 272 272 273 277 279 278 278 279 279 279 278 275 274 274 274 274 274
281 282 281 281 281 281 281 281 281 282 282 283 283 281 281 282 282 282 284 283 279 276 275 274 275 274 273 273 273 275 275 275 274 274 274 273 273 273 273 272 271 271 271 271 271 270 270 269 269 270 270 271 273 276 277 283 284 285 283 280 275 274 274 273 272 272 272 271 272 272 272 275 279 279 279 278 278 278 278 276 275 277 277 276 274
279 279 279 280 279 278 278 278 279 279 280 280 279 278 279 281 281 282 284 282 278 276 276 275 274 274 273 273 273 274 274 274 274 274 274 273 272 272 272 272 271 270 270 270 269 269 268 268 267 268 269 270 271 275 279 280 284 284 284 281 279 276 278 274 272 271 271 271 272 273 273 276 278 278 277 277 277 278 277 276 277 276 275 275 274
278 278 278 279 277 277 276 276 276 277 277 277 277 276 277 278 278 281 283 282 281 278 276 275 274 273 273 273 273 273 273 273 273 273 273 272 271 271 271 271 271 270 270 269 268 268 267 267 267 268 268 269 271 273 277 281 282 284 284 283 281 279 279 274 273 272 272 272 273 273 273 277 277 276 277 277 277 277 275 275 275 274 274 273 266
275 276 277 276 275 274 274 274 274 275 275 275 276 275 275 275 276 278 279 281 282 279 277 276 275 273 273 273 272 273 272 272 273 273 272 271 270 270 270 270 270 270 270 269 268 268 268 268 268 268 268 268 269 271 273 278 281 283 284 283 281 280 280 278 273 272 273 273 274 276 276 277 276 276 277 277 276 275 274 274 273 273 272 263 260
274 274 274 274 273 273 272 272 272 273 273 274 274 274 273 273 274 275 278 282 280 279 278 278 277 274 273 272 272 272 272 272 272 273 272 272 270 270 270 270 270 270 270 270 269 268 269 269 268 267 267 268 269 270 271 274 278 281 282 283 281 280 280 278 275 273 275 276 276 276 276 276 276 275 272 268 266 267 271 272 272 270 263 259 258
271 271 272 270 270 270 270 270 270 271 271 272 272 272 272 272 273 274 278 278 276 276 277 277 277 276 274 272 272 272 272 272 272 272 272 271 271 270 270 269 269 269 269 269 269 269 269 269 268 268 267 268 268 269 270 272 275 277 279 280 280 278 279 278 274 274 275 274 275 275 274 274 272 272 271 271 269 269 266 265 262 261 259 258 259
270 270 270 269 268 268 268 268 268 269 270 270 270 270 270 271 272 274 275 274 273 273 274 276 277 277 274 272 272 271 271 271 271 272 271 271 271 271 270 269 269 269 269 269 269 268 268 269 268 269 267 267 268 268 269 271 273 276 277 278 278 276 276 275 273 273 273 273 273 274 272 268 267 265 264 262 262 261 260 260 259 259 259 260 263
268 268 268 267 267 267 267 267 267 268 268 268 268 268 269 270 271 272 271 270 270 271 272 273 275 276 275 273 272 272 271 271 271 271 272 272 271 271 271 271 272 272 272 271 270 270 270 271 270 269 268 267 268 268 269 274 274 277 276 276 276 275 275 273 274 274 268 267 265 263 262 262 262 261 259 259 258 256 257 256 256 255 255 256 256
267 268 267 266 266 265 265 265 265 266 266 266 266 267 268 269 269 269 268 267 268 269 269 271 273 275 275 273 271 271 271 271 271 270 270 271 273 275 273 272 271 274 276 276 275 272 272 272 271 271 271 269 268 269 274 276 277 279 280 280 279 279 277 274 275 274 269 265 264 262 262 260 260 259 258 258 258 257 256 256 255 262 260 257 257
266 265 264 264 264 264 264 263 264 264 264 264 264 265 265 266 266 266 266 266 267 267 268 270 272 273 274 273 272 271 271 270 270 270 270 270 270 272 276 277 275 275 276 277 277 277 276 276 273 271 272 275 273 274 276 277 278 279 280 280 280 279 277 277 276 270 266 264 262 261 260 259 259 259 259 259 258 258 257 256 256 256 255 257 259
Wind_Speed
23 17 9 10 11 9 9 9 10 10 10 12 14 14 15 17 16 17 15 14 14 13 13 14 14 10 8 11 12 11 11 10 9 9 9 9 9 10 10 9 8 8 8 8 8 8 7 6 6 5 5 6 6 6 5 5 4 4 4 3 3 3 4 3 2 1 5 3 2 4 6 3 2 3 2 2 6 6 5 5 4 5 5 6 6
16 16 17 7 7 6 6 7 8 11 11 13 16 17 17 14 15 15 11 14 15 17 16 15 15 17 17 17 15 14 12 13 13 11 11 9 9 9 8 8 8 8 8 8 7 8 8 7 7 7 7 6 5 4 4 4 4 4 4 5 3 3 2 3 5 1 6 2 3 7 7 5 3 5 4 2 4 5 4 4 4 6 6 6 6
17 17 18 6 7 7 7 8 10 15 14 16 16 13 13 14 15 13 15 16 16 15 13 15 13 10 10 8 11 8 7 7 6 6 7 8 8 8 8 8 8 8 8 8 8 8 8 8 7 6 6 6 6 6 5 5 5 5 3 6 4 3 3 3 5 2 3 3 3 2 4 6 4 5 3 2 5 2 3 3 4 5 5 4 4
20 20 18 8 8 8 7 8 10 8 8 10 11 15 13 14 14 14 15 15 14 15 15 10 8 5 3 4 4 4 5 5 5 6 6 6 9 9 8 9 9 9 9 8 7 7 8 8 6 6 7 6 7 8 7 6 5 5 4 3 6 4 1 2 3 4 2 4 3 2 0 1 1 3 5 7 4 1 1 1 4 4 4 4 4
21 20 18 11 5 7 10 10 8 11 11 13 14 15 13 18 17 17 15 15 13 13 13 10 10 8 7 8 7 7 6 6 6 6 8 8 7 9 11 9 10 9 9 9 8 9 7 7 7 7 7 6 6 6 7 7 6 5 5 5 4 6 4 1 1 3 3 1 6 4 2 2 1 2 4 6 3 3 1 1 3 2 3 3 4
17 19 21 17 7 5 5 5 8 9 12 12 13 14 12 12 12 12 11 12 13 15 15 13 14 14 13 11 11 8 7 9 12 13 11 13 15 7 6 9 9 9 8 9 8 8 8 8 7 8 7 7 7 6 5 6 6 6 6 4 3 0 5 4 2 2 3 3 3 2 1 3 5 2 1 3 5 2 4 0 1 1 0 4 4
10 12 16 16 6 5 6 8 9 11 13 10 9 10 11 11 13 14 13 12 12 13 15 12 12 12 16 17 17 17 16 13 12 12 13 10 8 10 9 8 9 10 8 8 8 8 8 8 8 8 7 7 6 7 7 7 7 6 5 4 4 4 5 4 6 4 2 3 3 4 6 4 5 5 3 1 5 5 3 1 2 1 1 6 5
11 14 16 14 5 7 10 11 11 14 12 8 9 8 12 13 14 14 12 12 12 13 16 15 15 15 14 13 12 13 14 13 13 11 9 8 10 9 9 9 9 8 9 8 8 8 8 8 8 7 8 7 7 8 8 7 7 5 6 5 5 5 5 8 6 6 6 3 1 3 4 4 3 2 3 5 2 3 4 2 3 3 6 5 3
12 14 16 14 6 7 8 9 12 10 6 9 9 9 9 9 11 11 12 12 13 16 16 16 15 15 16 14 13 11 10 7 6 6 8 9 10 7 8 8 8 8 8 9 8 8 8 9 8 8 8 8 7 7 6 7 9 9 8 7 7 6 5 4 7 7 5 7 6 2 5 3 2 1 3 2 3 3 5 2 3 5 5 4 2
13 7 8 10 6 7 7 7 5 7 6 6 6 8 9 10 12 14 14 13 13 16 16 16 15 13 13 13 14 11 8 6 7 7 8 8 10 9 8 8 8 8 7 8 8 8 8 8 9 9 9 9 7 8 7 7 7 8 8 8 7 7 5 7 7 6 5 6 6 8 5 4 3 3 2 2 0 2 5 3 1 7 11 3 4
10 8 7 7 6 6 4 6 5 3 5 7 8 9 9 11 12 15 14 11 13 15 16 17 15 15 15 15 16 14 11 10 10 9 8 8 10 10 10 9 8 9 8 8 9 9 9 9 9 8 8 8 8 8 9 9 8 8 8 7 7 9 7 6 5 4 5 5 5 7 7 8 7 5 6 3 2 1 3 6 0 0 5 12 0
9 11 11 7 8 5 2 5 4 4 4 7 7 9 11 11 12 14 12 13 13 14 15 16 15 15 13 14 16 14 14 13 15 15 14 14 13 12 9 8 9 9 9 9 9 10 9 8 8 8 8 8 9 8 7 7 7 7 7 7 7 6 6 7 7 7 6 5 5 5 6 6 6 6 6 6 6 4 3 4 7 7 5 5 4
7 8 9 9 7 6 5 4 2 4 6 6 7 7 8 9 12 14 13 12 13 13 16 15 14 13 13 12 12 11 13 14 14 13 13 13 12 12 12 12 10 10 12 12 11 13 10 10 10 10 9 8 8 8 7 8 8 8 8 7 7 9 8 8 8 8 9 8 8 5 6 6 6 5 6 6 5 5 4 1 2 3 4 11 9
9 10 8 7 8 5 4 4 3 3 2 3 4 6 6 7 10 13 12 12 11 12 13 13 14 13 12 12 11 10 11 11 10 11 12 11 11 13 14 14 14 15 13 15 13 13 11 11 10 10 8 8 9 9 8 8 8 8 8 8 9 7 7 8 7 7 6 4 5 7 6 6 6 6 6 6 6 6 4 3 1 2 1 8 7
6 8 8 5 7 6 5 4 3 3 3 4 4 5 7 8 10 11 11 12 13 14 12 15 13 12 11 11 11 10 11 11 11 10 11 12 11 12 12 11 12 12 12 10 11 13 12 11 11 11 10 10 9 9 8 8 8 7 7 7 6 6 7 7 6 8 7 7 6 6 7 6 6 6 6 6 6 6 6 5 5 1 4 3 5
7 6 7 6 4 5 5 4 3 3 3 3 5 5 6 7 7 9 11 12 12 13 14 14 13 11 11 13 13 11 9 9 9 9 10 12 13 13 13 13 11 10 9 10 12 12 12 12 11 11 10 10 10 10 9 9 9 9 8 7 8 5 7 8 6 7 7 7 6 6 6 6 6 7 6 6 6 6 6 6 6 5 3 4 3
7 8 7 7 6 4 3 4 4 3 4 6 6 7 8 9 10 11 10 10 12 13 13 12 12 12 14 13 12 12 14 15 14 14 13 10 10 11 11 12 9 10 10 10 12 12 12 12 11 11 11 10 10 10 10 9 9 9 9 9 9 6 7 7 6 7 6 6 5 6 6 7 6 6 5 6 6 6 6 6 6 6 6 4 3
3 4 5 6 5 5 3 2 2 3 4 4 5 5 6 8 9 11 11 13 13 12 13 13 13 14 13 15 15 15 15 15 14 14 12 11 11 10 9 9 12 10 10 10 11 13 12 12 11 11 10 10 11 10 10 10 10 9 9 8 7 7 7 5 5 6 6 5 5 5 5 6 6 6 6 6 6 6 6 6 6 6 6 7 5
6 6 7 6 5 4 4 4 3 4 4 5 4 4 5 6 7 10 14 13 13 12 12 11 12 12 12 15 15 14 13 13 11 10 10 12 13 13 13 12 8 10 11 11 12 12 12 12 11 11 10 11 9 10 9 9 9 9 8 8 8 8 8 7 6 7 6 6 7 7 5 6 5 6 6 5 5 6 6 6 6 5 5 5 6
8 9 6 4 5 4 4 5 5 7 7 6 6 5 7 6 6 8 7 6 6 10 10 12 13 12 12 10 11 12 12 12 11 10 11 13 13 11 11 10 13 10 11 12 12 13 13 13 12 12 12 11 11 10 10 10 10 9 9 9 8 10 9 9 7 6 6 7 7 7 6 6 6 5 5 5 5 4 5 5 5 5 4 3 2
7 6 7 8 8 5 3 3 4 4 4 5 6 9 8 7 9 9 11 10 11 12 11 14 12 14 13 14 15 14 15 12 9 11 12 12 10 10 11 10 7 11 12 13 13 13 13 13 13 13 13 13 13 12 10 10 10 10 9 9 9 10 10 8 8 8 6 7 7 7 6 6 6 6 5 5 5 5 4 4 4 4 4 3 3
6 7 7 7 6 4 3 2 3 4 6 7 6 5 8 11 11 9 8 11 13 13 15 16 13 13 14 15 15 14 13 12 13 13 13 11 11 12 11 9 12 11 12 13 14 12 12 13 13 13 12 12 12 12 12 11 12 11 10 8 10 11 10 9 9 9 8 7 7 7 6 6 6 6 6 5 5 5 4 4 4 4 4 3 2
9 9 8 6 5 6 5 4 5 6 7 6 7 9 10 10 9 11 13 15 14 16 14 12 12 13 16 15 12 11 11 13 14 13 14 14 13 12 11 13 12 11 11 12 13 13 13 13 13 13 13 12 13 12 11 12 12 13 13 11 11 12 12 12 12 11 10 8 8 7 7 6 5 6 5 5 5 5 4 4 4 3 3 3 3
8 8 8 5 5 5 6 6 6 6 8 9 8 8 9 10 12 10 14 17 13 13 12 11 13 14 15 12 12 11 10 12 13 14 15 15 13 12 11 13 12 11 12 11 12 13 13 14 14 13 13 13 13 12 11 12 13 13 13 13 12 12 11 11 11 11 10 9 9 8 7 8 7 7 6 6 5 5 5 4 4 3 3 4 3
13 14 15 14 11 9 7 7 8 9 8 7 7 9 10 12 10 12 15 15 12 11 10 12 14 15 13 13 14 13 14 14 15 14 16 15 14 12 11 13 12 13 13 12 12 12 14 15 15 16 15 14 14 13 12 12 11 10 11 12 12 12 11 11 10 10 9 10 9 9 9 9 8 8 6 7 6 7 5 5 4 3 3 3 2
17 18 19 18 16 18 20 19 15 12 11 12 11 9 10 11 13 13 14 13 14 13 13 13 12 13 13 15 15 13 16 18 19 18 18 16 15 13 12 12 13 14 13 13 14 13 15 16 15 16 16 16 15 14 14 14 13 11 10 10 11 11 11 10 9 9 9 9 9 9 9 9 9 9 8 6 7 7 5 5 4 3 3 3 2
16 16 16 17 19 19 18 19 18 17 15 11 10 12 12 12 13 10 10 10 9 8 12 13 15 16 15 16 16 17 18 18 19 18 15 13 14 13 14 14 13 14 14 14 15 16 14 16 16 15 16 16 16 15 14 13 12 12 12 11 11 10 9 9 8 9 8 8 7 8 8 9 9 8 8 8 7 6 5 4 5 4 3 3 3
17 18 19 18 17 17 17 17 17 17 17 16 13 11 12 13 14 12 8 9 9 8 10 12 13 14 15 16 16 17 17 18 16 13 13 13 13 13 14 13 12 14 15 16 16 16 14 12 14 14 14 13 14 14 14 13 13 13 12 11 11 11 10 9 8 8 8 8 7 7 8 8 8 7 7 7 7 7 5 6 5 5 4 4 3
17 16 16 17 17 16 16 16 16 17 18 18 17 17 16 15 12 11 9 9 8 6 10 11 12 13 16 16 15 14 14 13 12 13 13 14 15 15 13 13 13 13 12 13 12 12 13 12 11 12 13 12 13 13 13 13 13 13 11 11 11 11 11 11 10 9 8 8 7 6 6 6 7 9 12 10 10 9 7 7 6 6 5 5 5
15 15 14 14 15 15 15 16 17 17 18 18 17 17 17 17 18 17 14 11 5 9 11 11 12 15 16 14 13 11 10 10 12 14 15 15 14 13 13 14 14 13 12 12 12 13 14 15 14 13 13 13 12 11 13 21 17 14 14 11 10 11 11 11 11 10 8 6 7 6 7 13 14 14 14 14 14 15 14 9 7 7 7 7 7
13 14 15 15 15 15 16 17 18 18 19 17 17 16 16 17 18 19 18 15 6 10 11 12 15 17 16 12 10 10 10 12 14 12 11 12 13 13 13 13 12 12 13 13 13 15 14 14 15 15 15 13 11 10 20 23 23 22 14 12 12 11 10 11 11 12 11 10 8 8 7 11 13 13 12 17 15 16 16 16 16 15 13 10 8
12 13 13 15 15 16 17 17 17 17 17 17 18 18 17 19 20 20 18 16 13 11 12 14 16 15 12 11 11 9 10 12 10 12 12 12 11 12 13 13 13 13 13 13 15 16 15 14 13 13 14 13 12 15 24 25 24 24 19 12 11 11 10 10 11 11 9 9 9 9 8 7 8 9 9 10 14 17 17 16 18 19 19 19 16
13 13 14 14 14 13 15 16 15 16 16 17 16 15 16 16 18 18 17 16 14 13 13 13 14 11 11 10 8 10 11 10 11 10 9 9 11 12 13 13 16 14 12 14 15 14 15 13 14 15 14 13 12 19 25 25 24 24 24 16 10 11 11 11 11 11 11 10 10 9 9 8 7 17 12 9 7 9 14 18 16 16 16 16 16
12 12 12 13 13 12 12 14 15 15 15 15 14 13 15 14 14 15 15 16 13 12 10 12 11 9 9 7 7 8 10 10 8 8 10 11 12 13 12 10 10 11 13 13 13 15 13 14 15 15 14 13 13 20 26 26 25 25 24 17 10 11 10 10 12 11 10 11 11 10 10 9 8 9 8 9 8 6 4 5 6 6 5 10 14
14 15 14 13 13 13 13 13 12 13 14 15 17 16 17 18 17 17 16 15 14 11 10 9 9 8 6 5 5 6 6 5 6 7 9 11 12 10 11 11 12 13 14 15 15 15 14 13 13 12 12 12 11 22 25 26 26 27 25 17 10 9 9 9 9 10 10 10 10 9 9 9 9 9 8 10 8 8 6 6 6 6 7 8 9
13 14 14 14 14 14 13 14 13 13 13 12 13 14 15 17 16 14 15 14 12 12 11 8 8 7 5 4 5 5 5 5 6 7 9 10 10 11 12 10 10 9 8 8 9 10 12 13 13 13 12 12 11 24 26 28 28 27 27 12 11 11 10 9 9 10 9 9 9 9 9 9 9 9 12 18 14 9 8 9 9 9 9 8 8
13 12 14 13 12 12 14 14 13 12 13 14 14 14 15 15 16 15 14 14 13 14 13 10 8 7 5 4 4 4 5 6 6 8 9 10 11 11 10 9 10 10 11 12 12 12 12 13 14 14 14 12 11 21 26 27 28 29 21 11 12 10 10 10 10 10 10 9 9 9 8 8 9 9 14 18 19 16 9 11 10 10 9 8 6
14 13 13 13 12 13 13 12 14 15 14 13 14 14 15 15 16 15 15 15 13 14 13 10 9 7 5 4 4 4 5 6 7 9 9 8 7 7 9 9 12 12 12 11 10 10 10 12 14 15 14 14 13 20 30 27 28 30 19 14 12 12 11 11 10 9 8 8 9 16 12 8 7 8 16 18 19 15 10 10 9 7 6 5 5
13 14 15 15 14 14 14 13 14 16 15 15 16 15 14 15 15 15 14 13 13 14 12 11 10 7 5 3 3 3 4 6 7 7 7 8 9 9 7 7 8 8 9 8 9 9 9 9 11 13 16 16 14 18 28 29 31 30 20 12 12 11 12 11 10 10 8 8 8 13 17 11 9 11 18 17 18 15 8 7 7 5 6 6 7
13 11 12 14 14 14 14 14 15 16 15 15 14 14 14 14 15 14 14 14 14 13 11 9 7 5 3 2 1 3 3 4 6 5 4 5 4 5 7 8 7 7 8 8 8 9 10 9 8 10 12 12 13 13 21 31 30 31 27 15 11 12 13 13 11 11 10 9 9 8 13 18 18 18 18 18 17 18 9 6 6 5 7 8 3
14 13 14 13 13 12 13 14 13 14 15 14 13 13 14 14 13 14 15 14 12 11 10 9 7 5 3 2 1 2 3 2 3 4 4 4 5 6 7 7 7 6 7 7 9 8 9 8 8 8 8 10 10 13 17 30 30 30 27 22 11 12 11 12 12 11 10 9 9 8 6 17 21 20 18 19 17 16 13 7 8 6 5 3 3
12 14 14 14 14 14 15 15 13 13 13 12 13 15 15 13 12 14 15 12 10 10 9 8 8 5 3 1 1 1 2 3 4 6 6 5 4 5 6 7 6 7 8 8 7 7 7 7 6 7 6 8 9 15 14 27 30 32 29 28 14 12 12 12 11 10 9 9 8 8 7 14 22 20 18 17 16 14 15 6 5 9 8 8 6
16 15 13 13 15 16 15 16 15 13 13 13 14 15 15 13 13 14 13 11 10 9 9 8 7 6 4 2 1 3 4 4 5 6 7 6 5 6 6 7 8 8 9 9 8 7 7 7 6 6 5 6 7 10 16 17 28 30 30 26 23 14 21 11 11 12 12 10 8 9 9 17 19 18 16 16 15 15 12 7 7 7 6 7 4
14 14 15 14 14 15 16 16 15 13 13 13 13 15 15 15 16 14 13 13 12 11 9 9 8 7 4 3 3 4 5 5 6 7 7 7 6 6 6 7 8 9 9 9 8 7 7 8 9 8 7 6 6 8 12 16 18 28 28 26 26 22 23 12 10 9 9 10 9 8 10 19 17 15 15 14 14 12 5 5 5 6 6 1 5
15 15 13 11 13 17 18 18 16 14 13 13 12 14 18 19 15 14 17 15 13 11 10 10 10 8 6 5 4 5 6 6 7 8 9 8 8 8 8 7 8 8 9 10 9 9 10 10 9 9 6 5 6 8 6 13 19 23 27 25 24 24 23 21 12 7 8 8 10 15 17 17 15 15 16 13 7 7 8 7 6 5 2 6 2
13 13 13 12 14 15 17 19 20 17 13 12 12 11 17 19 16 15 16 12 12 13 13 13 11 8 7 5 6 6 6 7 8 7 8 8 10 11 10 9 9 9 10 10 10 10 10 10 10 8 8 7 7 7 9 9 12 18 20 24 24 23 22 21 15 10 14 17 18 18 18 17 17 12 6 6 5 3 4 6 5 4 6 2 2
15 14 12 12 12 14 17 19 21 20 14 12 14 13 14 16 16 15 15 14 16 16 15 14 13 10 7 6 8 6 6 6 7 7 7 7 8 9 9 10 10 11 11 10 11 11 11 11 11 11 8 9 8 11 11 11 10 10 10 14 16 15 21 19 13 10 13 12 15 13 9 10 8 11 10 7 7 4 4 4 4 3 1 1 0
16 15 13 13 14 15 16 17 19 20 14 13 14 16 16 15 16 15 12 14 17 18 17 17 15 11 8 7 8 9 8 7 8 9 9 9 9 10 11 13 14 15 14 13 12 13 14 14 13 12 11 10 12 12 13 14 15 13 12 11 11 11 12 10 10 10 9 9 8 11 12 6 5 6 6 5 4 3 3 3 2 1 0 0 2
17 15 12 14 15 17 17 16 19 18 16 15 17 16 17 16 14 13 13 16 18 19 19 20 17 12 11 8 8 8 8 9 8 9 10 11 13 14 14 11 11 10 12 14 14 14 13 12 12 13 15 14 12 15 17 15 15 18 15 13 13 13 10 10 14 16 10 9 8 7 7 6 6 6 5 6 4 3 2 2 1 0 1 0 1
16 12 13 15 15 15 16 18 18 14 14 16 16 18 14 14 11 14 13 17 19 17 18 17 16 12 11 9 8 8 8 9 8 9 9 9 10 14 12 11 11 15 18 15 12 11 11 10 11 11 13 17 19 15 17 24 25 27 28 25 20 21 20 17 21 25 14 9 8 7 6 7 6 7 7 6 6 5 4 1 0 1 1 1 3
14 14 17 17 16 16 16 19 19 17 15 17 17 17 17 12 12 13 14 15 17 16 15 14 14 12 12 9 9 9 9 9 9 9 9 9 8 10 19 20 15 14 17 19 19 16 16 18 13 11 11 14 8 15 24 25 28 29 29 27 26 24 25 27 27 17 11 10 9 8 8 7 7 7 7 7 6 6 4 3 1 1 1 3 4
Wind_Direction
264 272 250 227 228 221 210 196 199 195 191 184 190 191 188 189 182 190 187 175 172 171 175 171 172 170 173 187 189 182 185 183 187 190 188 189 180 182 182 182 177 174 174 168 173 171 173 164 164 174 168 164 167 170 157 152 156 150 131 104 111 85 36 358 357 62 32 11 32 17 348 16 8 37 57 51 34 19 15 14 352 14 14 9 353
270 276 266 225 242 223 199 194 180 186 203 191 194 195 196 189 187 190 171 179 183 182 180 180 182 183 181 186 186 184 179 182 191 188 190 182 181 181 181 179 176 177 173 175 171 172 169 174 176 174 172 169 159 144 143 147 143 136 143 76 27 109 63 346 324 83 30 86 14 336 348 2 41 50 57 27 29 24 19 7 10 25 15 3 358
272 266 269 240 223 213 195 198 198 199 194 195 198 191 191 189 194 181 183 182 188 182 176 186 186 185 186 184 183 175 186 181 172 171 162 174 180 179 178 178 175 177 174 176 172 178 177 172 180 169 173 161 150 155 153 154 161 157 150 129 99 45 87 8 357 28 135 138 138 85 6 7 331 9 348 333 4 36 38 2 38 28 4 6 349
271 271 276 254 204 207 201 204 204 198 195 198 195 195 193 195 190 186 188 187 182 185 186 179 167 144 101 98 104 104 151 138 129 137 162 161 185 182 185 181 178 178 177 176 174 175 175 177 163 170 175 175 167 160 163 164 161 157 141 130 129 105 51 19 8 356 112 131 29 77 169 101 334 347 342 309 26 96 69 16 38 17 4 356 4
271 280 276 267 205 212 206 208 190 200 201 198 195 196 195 196 192 187 182 184 184 178 173 156 138 121 109 91 94 86 82 116 128 163 181 188 180 189 194 178 180 179 175 178 175 175 173 170 171 173 172 175 166 164 171 171 169 163 159 151 154 140 159 138 349 356 5 332 139 112 62 29 212 279 347 289 332 19 152 61 19 4 11 360 351
263 271 273 274 240 224 221 209 205 211 212 209 200 201 193 192 184 181 178 178 179 176 169 162 167 161 154 151 159 165 163 170 187 186 183 194 200 172 163 184 179 179 178 176 176 167 173 173 170 169 174 173 175 168 154 146 163 163 177 156 149 94 132 124 98 351 354 15 44 101 153 168 166 220 90 286 327 340 314 357 208 316 86 16 338
266 261 272 278 263 230 223 211 210 214 221 206 198 196 191 182 181 180 179 178 174 172 169 167 168 175 178 179 177 179 183 197 194 191 189 186 162 175 179 173 182 179 180 177 175 172 169 171 173 175 171 172 166 156 170 176 166 160 147 139 157 139 122 118 152 161 56 17 32 71 77 82 125 122 194 11 328 320 357 328 303 332 324 1 321
267 272 273 268 247 218 233 217 211 217 214 190 192 184 185 180 175 178 176 176 175 170 173 177 175 179 182 186 187 191 193 189 184 186 172 163 172 172 169 179 178 182 175 178 175 172 170 172 172 170 173 177 172 178 175 165 148 144 150 155 148 153 147 142 162 176 150 173 76 83 85 82 96 89 129 160 180 272 312 339 327 347 325 307 255
258 258 264 280 264 235 232 228 222 221 196 189 185 184 176 170 172 171 175 174 176 175 176 181 182 181 184 184 189 198 193 178 156 142 157 163 168 162 170 173 176 179 176 174 177 174 173 172 171 173 175 178 179 173 171 166 164 156 155 155 165 164 155 157 150 184 170 161 145 93 102 108 100 81 150 127 171 196 275 180 308 303 268 254 185
269 270 282 292 276 249 236 247 240 218 196 176 170 161 167 165 171 174 179 178 176 178 180 182 183 180 186 190 189 184 169 128 145 154 156 165 175 174 171 169 176 175 176 176 175 178 174 171 176 180 180 178 177 177 167 166 164 164 167 164 160 161 164 157 169 175 179 163 161 149 135 125 102 86 106 140 111 190 244 260 29 348 335 287 294
292 297 289 275 276 276 270 242 236 198 179 168 165 166 163 169 173 178 181 175 177 180 179 184 185 186 190 188 188 181 171 156 157 164 155 165 178 177 177 178 172 180 172 181 181 177 177 176 179 184 180 177 174 173 179 175 172 166 162 157 163 162 165 158 148 160 155 157 153 159 160 162 165 163 171 165 147 191 314 295 208 143 278 303 90
318 324 314 303 307 293 291 242 209 192 176 177 170 164 167 170 171 175 175 179 177 180 184 188 190 192 194 189 189 185 173 175 177 177 176 177 177 177 174 165 181 179 180 180 184 179 177 179 179 178 181 179 183 181 175 173 166 159 160 166 167 162 155 153 153 156 163 161 166 161 157 146 133 134 155 150 145 162 149 287 323 329 291 210 288
307 296 295 301 281 280 273 269 236 199 195 185 175 166 163 166 172 174 182 177 179 180 188 190 191 194 192 192 195 186 186 186 185 180 179 179 179 175 172 184 176 181 192 187 188 179 177 178 180 182 185 188 179 175 177 169 165 167 168 170 167 169 172 165 164 174 169 171 174 170 150 148 148 142 134 138 135 130 126 6 326 38 318 314 327
291 289 285 274 288 286 280 279 264 260 225 191 171 164 167 170 175 181 181 178 178 184 189 191 198 195 193 194 192 186 191 186 189 186 185 186 181 183 185 186 185 194 185 194 182 177 185 186 181 185 182 178 178 179 174 173 169 169 171 173 179 174 162 170 168 165 172 172 155 153 156 151 146 144 143 137 144 133 140 147 343 348 316 298 316
301 293 297 309 309 303 283 257 252 243 212 187 178 176 169 175 180 183 178 185 182 187 186 194 196 195 196 197 194 192 190 187 193 192 184 186 188 189 192 188 192 193 190 186 171 183 183 178 183 180 180 179 177 176 175 172 170 163 171 177 169 166 169 163 165 164 169 167 166 161 154 146 151 154 146 152 145 150 146 150 141 12 317 229 267
325 313 309 303 282 289 293 290 262 225 206 205 192 182 178 181 184 191 189 187 189 189 195 194 194 193 196 196 197 192 193 193 195 195 195 192 190 190 191 192 194 181 180 172 183 178 181 181 180 185 178 178 179 178 174 173 170 168 169 171 175 168 166 170 167 166 166 169 167 157 144 156 154 154 152 148 152 152 146 151 146 149 177 284 285
315 314 307 301 306 305 286 293 284 255 214 200 200 195 188 182 183 190 192 191 196 198 194 193 193 194 201 199 194 195 195 196 198 196 194 190 189 195 193 194 180 179 179 176 173 180 181 180 180 180 180 178 178 181 177 175 172 171 172 171 175 169 165 171 161 169 169 165 164 168 156 153 156 148 147 148 150 149 154 157 159 163 181 191 259
273 277 269 268 275 282 282 260 254 269 279 267 231 209 203 194 188 189 194 197 201 195 195 195 196 201 202 202 202 201 200 202 200 196 188 183 193 193 189 179 192 182 170 173 172 176 179 178 179 180 178 177 182 179 179 176 171 176 173 173 163 154 157 153 167 162 166 163 165 163 158 150 156 148 151 153 152 156 155 162 166 168 179 199 207
2 351 341 322 295 274 258 247 232 224 226 228 242 245 233 216 203 199 202 203 197 197 200 202 200 202 203 204 202 203 206 207 205 193 185 191 194 193 191 192 168 171 173 170 173 174 177 180 178 177 176 179 178 181 177 176 176 172 170 166 159 160 162 165 169 164 169 164 167 168 163 154 156 149 147 153 153 151 153 154 157 162 185 192 220
325 315 309 290 284 264 250 237 231 220 215 212 208 210 225 229 221 220 219 208 202 207 205 209 209 207 208 204 209 209 210 206 201 192 195 201 200 193 190 182 186 170 175 172 173 177 177 177 180 176 176 178 180 181 179 177 176 179 170 167 166 163 164 168 167 170 165 172 169 171 174 161 159 146 150 147 143 136 135 140 145 155 168 175 170
306 296 294 305 307 321 307 270 266 271 248 227 215 210 207 208 222 218 211 205 207 208 203 215 205 211 205 205 205 202 207 203 200 201 202 202 197 193 193 191 156 180 173 176 177 179 177 178 176 179 180 181 180 180 181 177 179 177 176 169 162 166 165 165 162 169 173 172 176 173 173 164 153 151 153 145 145 144 141 146 152 154 180 191 181
273 283 283 286 291 296 309 283 253 244 245 237 233 225 219 215 214 215 218 216 212 208 209 211 208 211 209 213 209 207 203 193 198 199 204 201 199 195 188 170 185 183 175 178 178 176 177 176 177 181 183 184 184 182 180 179 181 177 175 171 169 169 167 166 167 174 176 176 172 169 171 163 162 152 152 156 153 154 153 156 173 168 191 187 204
279 282 282 275 288 301 301 275 247 236 245 240 227 220 224 225 217 215 210 223 215 215 212 209 209 210 214 214 211 209 201 201 202 202 203 201 199 192 180 184 185 179 181 179 178 176 174 175 177 180 181 184 185 184 184 182 184 180 177 177 176 173 172 171 176 180 176 168 169 173 172 162 154 149 158 155 148 153 154 158 165 167 164 203 200
260 266 278 322 320 319 317 298 278 260 247 240 230 232 234 227 220 214 221 228 219 223 219 216 216 217 214 204 207 206 202 207 207 208 206 205 199 193 183 185 182 175 180 183 176 174 172 175 178 179 182 183 184 186 186 189 186 182 180 179 176 178 177 179 178 174 172 172 174 168 177 168 160 157 161 157 158 156 160 161 159 180 177 192 203
343 353 356 1 355 340 308 290 286 288 285 263 241 234 230 231 217 217 225 229 223 222 218 223 222 224 215 207 207 197 199 202 208 209 212 205 199 192 187 185 177 182 182 175 178 174 175 177 182 181 180 182 185 184 185 189 191 188 184 178 178 178 179 179 178 174 172 172 174 181 173 170 166 162 164 169 165 165 165 161 164 177 174 186 194
17 11 11 9 4 3 0 354 345 330 311 305 292 269 251 239 230 218 224 226 219 214 212 217 219 222 221 215 211 201 204 204 207 209 208 202 199 191 185 188 184 182 179 182 177 179 182 184 183 182 181 180 180 182 185 187 187 183 183 183 180 179 177 174 171 172 172 175 178 177 175 172 172 173 177 171 168 166 160 159 162 170 166 192 203
14 10 6 7 7 2 358 359 356 352 343 327 313 306 301 293 287 275 258 247 237 219 218 216 216 216 217 215 209 206 207 208 208 207 202 196 196 192 186 189 185 184 180 181 185 183 186 183 184 179 182 180 178 179 182 184 184 183 183 180 178 176 170 168 170 170 170 174 177 174 175 177 177 178 171 171 163 161 163 170 172 170 185 184 219
9 8 6 1 355 355 356 353 352 349 343 344 333 310 290 281 276 271 253 250 251 237 235 230 227 225 223 219 213 211 210 211 209 202 196 195 191 189 192 188 180 183 185 186 184 186 184 182 182 182 181 175 176 179 181 182 182 180 179 181 178 172 166 165 163 166 168 172 173 175 178 181 175 170 163 162 162 165 160 177 178 172 183 199 214
8 3 360 357 353 348 346 346 345 344 344 341 338 335 331 319 297 283 271 257 245 235 240 239 238 235 232 226 220 216 216 210 199 195 196 193 192 192 187 181 185 187 184 183 180 176 173 180 180 179 176 176 179 183 181 180 177 179 179 178 176 172 168 166 165 163 163 164 168 170 169 168 170 169 173 171 173 171 166 178 190 174 191 198 216
3 358 354 351 347 345 343 341 342 343 341 338 336 333 331 327 324 320 310 286 246 239 239 237 234 235 236 233 229 224 215 204 198 199 198 194 190 185 183 185 186 184 179 176 175 178 179 179 176 178 179 180 183 181 182 180 178 175 175 175 173 174 171 168 163 162 161 159 165 167 175 177 181 184 186 188 191 194 189 183 183 183 189 202 210
359 353 350 345 344 343 343 343 341 340 337 335 331 329 328 329 330 327 320 310 273 250 244 236 237 236 235 231 226 223 208 205 206 200 196 189 187 183 183 182 180 178 178 175 174 178 182 180 181 180 179 182 182 180 179 181 180 177 173 172 172 172 170 166 168 167 171 170 171 175 176 189 187 191 193 196 197 198 202 201 199 199 198 196 203
351 348 345 342 341 341 341 338 335 333 333 333 331 329 330 331 330 326 319 312 294 264 256 248 243 244 237 227 219 214 208 212 198 201 195 192 181 177 180 181 177 177 178 173 179 183 180 181 179 178 180 181 181 178 180 181 179 177 173 171 169 168 168 170 170 171 168 164 169 172 181 187 188 187 185 196 202 205 208 214 218 218 220 218 210
342 341 339 338 336 333 332 331 331 329 328 325 323 323 326 327 324 318 315 312 301 280 266 261 256 250 244 231 215 206 211 207 203 193 182 177 181 181 180 178 183 181 167 178 184 177 182 177 176 178 181 180 181 180 182 181 179 177 174 168 170 168 169 172 171 172 171 171 172 172 174 186 190 191 190 192 196 208 214 219 225 228 232 236 241
331 331 332 329 328 327 326 324 321 320 320 318 320 321 321 321 318 319 322 319 313 295 275 269 271 263 251 235 219 210 210 207 191 179 173 176 179 188 184 178 168 167 178 179 178 181 178 180 180 179 179 178 178 181 182 181 179 177 172 165 167 167 170 172 172 172 173 172 176 174 175 179 180 188 187 184 188 194 199 223 230 231 232 242 245
329 329 328 327 323 322 321 320 320 320 320 324 326 331 331 329 331 329 328 327 320 306 293 282 279 272 257 237 221 214 214 194 183 178 177 181 181 178 177 179 177 179 179 181 181 181 182 177 176 176 176 178 179 181 182 180 180 180 176 162 160 162 164 170 173 174 175 175 176 176 177 172 171 181 184 181 178 185 189 205 217 227 234 233 235
323 322 321 322 323 321 320 317 316 318 320 321 320 325 329 324 324 326 327 327 325 316 305 302 291 284 266 245 216 211 196 179 177 178 183 186 183 182 179 175 173 176 177 173 179 177 174 176 176 174 174 177 176 183 182 182 180 179 173 157 162 165 168 171 173 176 178 178 177 176 173 173 171 175 187 191 186 180 186 199 212 221 227 231 232
316 317 317 316 314 317 319 319 319 319 321 323 326 327 327 326 328 329 331 329 332 329 325 320 306 300 283 256 222 202 191 182 181 184 191 188 181 180 177 170 172 177 176 182 182 180 178 175 174 176 175 174 172 183 183 182 182 180 167 152 163 165 168 171 177 177 178 177 180 179 176 168 172 173 190 197 196 191 195 204 213 220 222 223 223
315 317 314 318 319 319 319 322 322 323 324 324 327 327 328 330 331 332 334 331 335 332 326 322 314 308 286 265 232 200 195 186 185 194 192 192 185 181 178 174 177 176 181 184 175 174 178 178 176 178 177 169 173 183 184 183 183 181 161 160 167 168 170 172 172 175 174 177 181 181 175 173 172 177 196 199 201 202 199 198 201 204 208 233 249
319 320 320 321 323 321 322 324 326 323 326 330 328 329 332 332 333 333 330 331 334 330 327 322 314 307 289 271 245 219 205 191 194 196 187 184 183 183 172 169 178 176 178 168 171 174 175 179 183 179 175 173 175 183 185 186 183 180 162 165 168 169 168 172 170 170 172 172 181 191 190 182 185 193 199 200 203 204 197 198 196 193 219 240 248
316 314 314 315 315 320 321 325 325 323 327 328 327 329 333 332 331 331 330 332 332 322 311 307 308 314 309 282 247 227 217 198 192 174 173 181 165 157 167 171 173 170 168 167 172 174 173 177 174 178 183 176 175 184 189 188 183 181 166 163 169 169 176 171 172 171 165 176 181 188 198 203 197 198 201 203 205 205 197 184 189 207 222 230 208
313 314 316 314 314 316 317 318 322 323 326 326 328 329 328 328 327 328 327 327 321 312 309 309 310 317 321 303 287 224 205 188 167 160 151 146 162 167 162 167 162 155 156 163 170 170 170 172 171 177 181 184 180 180 191 189 188 183 168 167 171 181 177 172 173 171 175 173 178 185 188 202 199 199 200 201 203 210 208 194 204 210 204 210 237
304 308 314 315 315 317 316 317 320 324 320 325 329 325 320 322 323 321 320 319 317 311 308 309 309 308 309 295 261 175 148 153 139 142 149 160 159 155 164 161 155 153 160 164 164 165 166 161 163 171 180 183 187 190 187 194 191 189 175 172 167 181 176 171 172 175 177 175 173 179 181 204 203 200 199 200 203 206 210 197 208 225 239 253 263
312 310 310 315 315 316 316 315 318 320 322 322 326 318 315 319 317 314 316 317 312 307 304 301 298 294 286 253 199 167 169 156 160 159 158 162 158 160 167 162 159 158 162 164 167 165 161 161 157 171 168 171 187 201 201 198 195 194 186 174 173 168 180 175 176 175 179 176 172 184 184 199 197 192 194 198 201 203 207 218 216 228 234 251 274
301 303 309 317 313 310 312 312 312 315 318 321 322 318 314 317 313 320 316 312 308 300 294 290 284 274 267 237 200 181 172 176 170 162 158 155 163 171 173 178 171 167 167 167 172 167 166 168 171 179 177 169 179 198 211 207 198 195 193 180 178 177 180 173 176 175 168 174 171 166 176 190 189 192 193 195 199 204 187 181 199 214 235 252 77
300 301 305 310 309 310 311 307 307 311 315 316 319 317 316 310 313 322 315 306 304 302 293 283 276 266 248 240 217 200 185 182 180 169 169 164 167 169 175 187 175 181 178 178 180 176 180 180 181 181 148 157 171 185 201 210 207 201 197 186 182 181 184 177 175 167 163 161 162 165 174 186 192 191 191 194 188 187 182 190 195 206 137 79 82
295 297 306 311 311 307 304 304 306 308 312 312 311 315 309 304 312 315 305 308 315 309 299 285 276 260 247 221 216 220 203 190 183 186 184 179 174 179 181 181 185 189 188 186 181 183 184 184 185 125 160 158 166 165 185 195 203 203 201 193 186 186 186 179 170 166 165 164 166 173 181 187 190 180 154 105 86 133 177 190 183 106 73 88 90
296 296 307 309 306 303 302 303 304 303 309 309 307 306 299 302 305 305 308 323 321 312 300 290 279 267 249 222 222 215 208 206 193 188 186 182 185 185 186 186 190 189 189 190 188 185 187 189 186 184 162 164 162 180 183 186 189 192 196 191 184 185 185 174 165 166 167 165 171 177 174 160 131 140 138 144 137 143 90 62 55 68 86 88 103
292 296 303 303 300 298 298 300 298 297 307 309 303 301 300 300 300 302 312 315 309 303 298 291 282 273 253 230 229 220 206 203 204 195 189 189 194 193 194 196 190 192 187 193 189 188 192 191 189 179 173 178 188 191 189 186 186 183 182 178 170 165 174 162 154 160 155 153 146 146 139 116 114 92 90 71 84 85 110 97 68 74 71 74 247
291 293 299 295 301 300 297 297 292 295 304 303 299 297 296 295 299 308 317 310 300 296 294 289 284 272 259 237 230 221 212 210 204 206 213 202 190 192 203 211 215 202 198 190 190 200 198 193 182 179 175 187 188 196 200 186 180 179 173 168 164 168 156 146 163 153 127 106 106 104 111 131 136 136 124 128 117 96 76 81 81 30 21 292 261
283 289 290 292 290 290 293 293 289 293 299 295 294 291 289 294 308 310 309 300 295 293 288 282 280 273 262 245 231 229 220 217 212 209 209 223 229 218 208 204 208 208 214 214 208 205 194 182 187 196 187 185 193 194 172 179 183 181 180 174 165 166 163 156 154 147 136 129 133 136 147 152 155 152 154 152 153 142 136 111 28 204 179 228 244
296 302 298 295 292 291 292 289 289 295 292 291 289 288 288 295 308 299 298 291 287 286 281 279 278 274 266 250 236 232 224 217 216 214 212 212 212 222 224 222 216 208 210 214 213 211 199 197 189 183 191 200 181 170 177 180 181 182 179 175 171 162 150 153 149 136 132 147 153 155 160 155 163 160 166 166 158 154 157 146 186 218 227 233 253